Time,TemperatureF,DewpointF,PressureIn,WindDirection,WindDirectionDegrees,WindSpeedMPH,WindSpeedGustMPH,Humidity,HourlyPrecipIn,Conditions,Clouds,dailyrainin,SoftwareType,DateUTC
2015-03-05 00:01:00,15.0,2.9,30.28,North,0,5.0,-999.0,58,0.00,,,0.00,Wunderground v.1.15,2015-03-05 05:01:00,
2015-03-05 00:04:00,15.0,2.9,30.28,North,0,5.0,-999.0,58,0.00,,,0.00,Wunderground v.1.15,2015-03-05 05:04:00,
2015-03-05 00:06:00,15.0,2.9,30.28,North,0,5.0,-999.0,58,0.00,,,0.00,Wunderground v.1.15,2015-03-05 05:06:00,
2015-03-05 00:09:00,15.0,2.9,30.28,North,0,5.0,-999.0,58,0.00,,,0.00,Wunderground v.1.15,2015-03-05 05:09:00,
2015-03-05 00:11:00,15.0,2.9,30.28,North,0,5.0,-999.0,58,0.00,,,0.00,Wunderground v.1.15,2015-03-05 05:11:00,
2015-03-05 00:14:00,15.0,2.9,30.28,North,0,5.0,-999.0,58,0.00,,,0.00,Wunderground v.1.15,2015-03-05 05:14:00,
2015-03-05 00:16:00,15.0,2.5,30.28,North,0,9.0,-999.0,57,0.00,,,0.00,Wunderground v.1.15,2015-03-05 05:16:00,
2015-03-05 00:19:00,15.0,2.5,30.28,North,0,9.0,-999.0,57,0.00,,,0.00,Wunderground v.1.15,2015-03-05 05:19:00,
2015-03-05 00:21:00,15.0,2.5,30.28,North,0,9.0,-999.0,57,0.00,,,0.00,Wunderground v.1.15,2015-03-05 05:21:00,
2015-03-05 00:24:00,15.0,2.5,30.28,North,0,9.0,-999.0,57,0.00,,,0.00,Wunderground v.1.15,2015-03-05 05:24:00,
2015-03-05 00:26:00,14.8,2.7,30.28,North,0,6.0,-999.0,58,0.00,,,0.00,Wunderground v.1.15,2015-03-05 05:26:00,
2015-03-05 00:29:00,14.8,2.7,30.28,North,0,6.0,-999.0,58,0.00,,,0.00,Wunderground v.1.15,2015-03-05 05:29:00,
2015-03-05 00:31:00,14.8,2.7,30.28,North,0,6.0,-999.0,58,0.00,,,0.00,Wunderground v.1.15,2015-03-05 05:31:00,
2015-03-05 00:34:00,14.8,2.7,30.28,North,0,6.0,-999.0,58,0.00,,,0.00,Wunderground v.1.15,2015-03-05 05:34:00,
2015-03-05 00:36:00,14.6,2.5,30.30,North,0,7.0,-999.0,58,0.00,,,0.00,Wunderground v.1.15,2015-03-05 05:36:00,
2015-03-05 00:39:00,14.6,2.5,30.30,North,0,7.0,-999.0,58,0.00,,,0.00,Wunderground v.1.15,2015-03-05 05:39:00,
2015-03-05 00:41:00,14.6,2.5,30.30,North,0,7.0,-999.0,58,0.00,,,0.00,Wunderground v.1.15,2015-03-05 05:41:00,
2015-03-05 00:44:00,14.6,2.5,30.30,North,0,7.0,-999.0,58,0.00,,,0.00,Wunderground v.1.15,2015-03-05 05:44:00,
2015-03-05 00:46:00,14.5,2.8,30.30,North,0,6.0,-999.0,59,0.00,,,0.00,Wunderground v.1.15,2015-03-05 05:46:00,
2015-03-05 00:49:00,14.5,2.8,30.30,North,0,6.0,-999.0,59,0.00,,,0.00,Wunderground v.1.15,2015-03-05 05:49:00,
2015-03-05 00:51:00,14.5,2.8,30.30,North,0,6.0,-999.0,59,0.00,,,0.00,Wunderground v.1.15,2015-03-05 05:51:00,
2015-03-05 00:54:00,14.5,2.8,30.30,North,0,6.0,-999.0,59,0.00,,,0.00,Wunderground v.1.15,2015-03-05 05:54:00,
2015-03-05 00:56:00,14.4,2.7,30.30,North,0,6.0,-999.0,59,0.00,,,0.00,Wunderground v.1.15,2015-03-05 05:56:00,
2015-03-05 00:59:00,14.4,2.7,30.30,North,0,6.0,-999.0,59,0.00,,,0.00,Wunderground v.1.15,2015-03-05 05:59:00,
2015-03-05 01:01:00,14.4,2.7,30.30,North,0,6.0,-999.0,59,0.00,,,0.00,Wunderground v.1.15,2015-03-05 06:01:00,
2015-03-05 01:04:00,14.4,2.7,30.30,North,0,6.0,-999.0,59,0.00,,,0.00,Wunderground v.1.15,2015-03-05 06:04:00,
2015-03-05 01:06:00,14.3,2.9,30.31,North,0,5.0,-999.0,60,0.00,,,0.00,Wunderground v.1.15,2015-03-05 06:06:00,
2015-03-05 01:09:00,14.3,2.9,30.31,North,0,5.0,-999.0,60,0.00,,,0.00,Wunderground v.1.15,2015-03-05 06:09:00,
2015-03-05 01:11:00,14.3,2.9,30.31,North,0,5.0,-999.0,60,0.00,,,0.00,Wunderground v.1.15,2015-03-05 06:11:00,
2015-03-05 01:14:00,14.3,2.9,30.31,North,0,5.0,-999.0,60,0.00,,,0.00,Wunderground v.1.15,2015-03-05 06:14:00,
2015-03-05 01:16:00,14.1,2.7,30.31,NNE,23,6.0,-999.0,60,0.00,,,0.00,Wunderground v.1.15,2015-03-05 06:16:00,
2015-03-05 01:21:00,14.1,2.7,30.31,NNE,23,6.0,-999.0,60,0.00,,,0.00,Wunderground v.1.15,2015-03-05 06:21:00,
2015-03-05 01:24:00,14.1,2.7,30.31,NNE,23,6.0,-999.0,60,0.00,,,0.00,Wunderground v.1.15,2015-03-05 06:24:00,
2015-03-05 01:26:00,14.0,2.7,30.32,North,0,6.0,-999.0,60,0.00,,,0.00,Wunderground v.1.15,2015-03-05 06:26:00,
2015-03-05 01:29:00,14.0,2.7,30.32,North,0,6.0,-999.0,60,0.00,,,0.00,Wunderground v.1.15,2015-03-05 06:29:00,
2015-03-05 01:31:00,14.0,2.7,30.32,North,0,6.0,-999.0,60,0.00,,,0.00,Wunderground v.1.15,2015-03-05 06:31:00,
2015-03-05 01:34:00,14.0,2.7,30.32,North,0,6.0,-999.0,60,0.00,,,0.00,Wunderground v.1.15,2015-03-05 06:34:00,
2015-03-05 01:36:00,13.9,2.9,30.31,NNE,23,5.0,-999.0,61,0.00,,,0.00,Wunderground v.1.15,2015-03-05 06:36:00,
2015-03-05 01:39:00,13.9,2.9,30.31,NNE,23,5.0,-999.0,61,0.00,,,0.00,Wunderground v.1.15,2015-03-05 06:39:00,
2015-03-05 01:41:00,13.9,2.9,30.31,NNE,23,5.0,-999.0,61,0.00,,,0.00,Wunderground v.1.15,2015-03-05 06:41:00,
2015-03-05 01:44:00,13.9,2.9,30.31,NNE,23,5.0,-999.0,61,0.00,,,0.00,Wunderground v.1.15,2015-03-05 06:44:00,
2015-03-05 01:46:00,13.7,2.7,30.31,NNE,23,5.0,-999.0,61,0.00,,,0.00,Wunderground v.1.15,2015-03-05 06:46:00,
2015-03-05 01:49:00,13.7,2.7,30.31,NNE,23,5.0,-999.0,61,0.00,,,0.00,Wunderground v.1.15,2015-03-05 06:49:00,
2015-03-05 01:51:00,13.7,2.7,30.31,NNE,23,5.0,-999.0,61,0.00,,,0.00,Wunderground v.1.15,2015-03-05 06:51:00,
2015-03-05 01:54:00,13.7,2.7,30.31,NNE,23,5.0,-999.0,61,0.00,,,0.00,Wunderground v.1.15,2015-03-05 06:54:00,
2015-03-05 01:56:00,13.5,2.9,30.30,NNE,23,5.0,-999.0,62,0.00,,,0.00,Wunderground v.1.15,2015-03-05 06:56:00,
2015-03-05 01:59:00,13.5,2.9,30.30,NNE,23,5.0,-999.0,62,0.00,,,0.00,Wunderground v.1.15,2015-03-05 06:59:00,
2015-03-05 02:01:00,13.5,2.9,30.30,NNE,23,5.0,-999.0,62,0.00,,,0.00,Wunderground v.1.15,2015-03-05 07:01:00,
2015-03-05 02:04:00,13.5,2.9,30.30,NNE,23,5.0,-999.0,62,0.00,,,0.00,Wunderground v.1.15,2015-03-05 07:04:00,
2015-03-05 02:06:00,13.4,2.8,30.32,NNE,23,5.0,-999.0,62,0.00,,,0.00,Wunderground v.1.15,2015-03-05 07:06:00,
2015-03-05 02:09:00,13.4,2.8,30.32,NNE,23,5.0,-999.0,62,0.00,,,0.00,Wunderground v.1.15,2015-03-05 07:09:00,
2015-03-05 02:11:00,13.4,2.8,30.32,NNE,23,5.0,-999.0,62,0.00,,,0.00,Wunderground v.1.15,2015-03-05 07:11:00,
2015-03-05 02:14:00,13.4,2.8,30.32,NNE,23,5.0,-999.0,62,0.00,,,0.00,Wunderground v.1.15,2015-03-05 07:14:00,
2015-03-05 02:16:00,13.3,2.7,30.32,NNE,23,4.0,-999.0,62,0.00,,,0.00,Wunderground v.1.15,2015-03-05 07:16:00,
2015-03-05 02:19:00,13.3,2.7,30.32,NNE,23,4.0,-999.0,62,0.00,,,0.00,Wunderground v.1.15,2015-03-05 07:19:00,
2015-03-05 02:21:00,13.3,2.7,30.32,NNE,23,4.0,-999.0,62,0.00,,,0.00,Wunderground v.1.15,2015-03-05 07:21:00,
2015-03-05 02:24:00,13.3,2.7,30.32,NNE,23,4.0,-999.0,62,0.00,,,0.00,Wunderground v.1.15,2015-03-05 07:24:00,
2015-03-05 02:26:00,13.1,2.9,30.32,NNW,338,3.0,-999.0,63,0.00,,,0.00,Wunderground v.1.15,2015-03-05 07:26:00,
2015-03-05 02:29:00,13.1,2.9,30.32,NNW,338,3.0,-999.0,63,0.00,,,0.00,Wunderground v.1.15,2015-03-05 07:29:00,
2015-03-05 02:31:00,13.1,2.9,30.32,NNW,338,3.0,-999.0,63,0.00,,,0.00,Wunderground v.1.15,2015-03-05 07:31:00,
2015-03-05 02:34:00,13.1,2.9,30.32,NNW,338,3.0,-999.0,63,0.00,,,0.00,Wunderground v.1.15,2015-03-05 07:34:00,
2015-03-05 02:36:00,12.8,2.9,30.33,North,0,3.0,-999.0,64,0.00,,,0.00,Wunderground v.1.15,2015-03-05 07:36:00,
2015-03-05 02:39:00,12.8,2.9,30.33,North,0,3.0,-999.0,64,0.00,,,0.00,Wunderground v.1.15,2015-03-05 07:39:00,
2015-03-05 02:41:00,12.8,2.9,30.33,North,0,3.0,-999.0,64,0.00,,,0.00,Wunderground v.1.15,2015-03-05 07:41:00,
2015-03-05 02:44:00,12.8,2.9,30.33,North,0,3.0,-999.0,64,0.00,,,0.00,Wunderground v.1.15,2015-03-05 07:44:00,
2015-03-05 02:46:00,12.5,2.6,30.34,North,0,2.0,-999.0,64,0.00,,,0.00,Wunderground v.1.15,2015-03-05 07:46:00,
2015-03-05 02:49:00,12.5,2.6,30.34,North,0,2.0,-999.0,64,0.00,,,0.00,Wunderground v.1.15,2015-03-05 07:49:00,
2015-03-05 02:51:00,12.5,2.6,30.34,North,0,2.0,-999.0,64,0.00,,,0.00,Wunderground v.1.15,2015-03-05 07:51:00,
2015-03-05 02:54:00,12.5,2.6,30.34,North,0,2.0,-999.0,64,0.00,,,0.00,Wunderground v.1.15,2015-03-05 07:54:00,
2015-03-05 02:56:00,12.1,2.2,30.33,North,0,3.0,-999.0,64,0.00,,,0.00,Wunderground v.1.15,2015-03-05 07:56:00,
2015-03-05 02:59:00,12.1,2.2,30.33,North,0,3.0,-999.0,64,0.00,,,0.00,Wunderground v.1.15,2015-03-05 07:59:00,
2015-03-05 03:01:00,12.1,2.2,30.33,North,0,3.0,-999.0,64,0.00,,,0.00,Wunderground v.1.15,2015-03-05 08:01:00,
2015-03-05 03:04:00,12.1,2.2,30.33,North,0,3.0,-999.0,64,0.00,,,0.00,Wunderground v.1.15,2015-03-05 08:04:00,
2015-03-05 03:06:00,11.7,2.2,30.32,NNE,23,3.0,-999.0,65,0.00,,,0.00,Wunderground v.1.15,2015-03-05 08:06:00,
2015-03-05 03:09:00,11.7,2.2,30.32,NNE,23,3.0,-999.0,65,0.00,,,0.00,Wunderground v.1.15,2015-03-05 08:09:00,
2015-03-05 03:11:00,11.7,2.2,30.32,NNE,23,3.0,-999.0,65,0.00,,,0.00,Wunderground v.1.15,2015-03-05 08:11:00,
2015-03-05 03:14:00,11.7,2.2,30.32,NNE,23,3.0,-999.0,65,0.00,,,0.00,Wunderground v.1.15,2015-03-05 08:14:00,
2015-03-05 03:16:00,11.4,1.9,30.32,NNE,23,4.0,-999.0,65,0.00,,,0.00,Wunderground v.1.15,2015-03-05 08:16:00,
2015-03-05 03:19:00,11.4,1.9,30.32,NNE,23,4.0,-999.0,65,0.00,,,0.00,Wunderground v.1.15,2015-03-05 08:19:00,
2015-03-05 03:21:00,11.4,1.9,30.32,NNE,23,4.0,-999.0,65,0.00,,,0.00,Wunderground v.1.15,2015-03-05 08:21:00,
2015-03-05 03:24:00,11.4,1.9,30.32,NNE,23,4.0,-999.0,65,0.00,,,0.00,Wunderground v.1.15,2015-03-05 08:24:00,
2015-03-05 03:26:00,11.1,1.9,30.32,NE,45,3.0,-999.0,66,0.00,,,0.00,Wunderground v.1.15,2015-03-05 08:26:00,
2015-03-05 03:29:00,11.1,1.9,30.32,NE,45,3.0,-999.0,66,0.00,,,0.00,Wunderground v.1.15,2015-03-05 08:29:00,
2015-03-05 03:31:00,11.1,1.9,30.32,NE,45,3.0,-999.0,66,0.00,,,0.00,Wunderground v.1.15,2015-03-05 08:31:00,
2015-03-05 03:34:00,11.1,1.9,30.32,NE,45,3.0,-999.0,66,0.00,,,0.00,Wunderground v.1.15,2015-03-05 08:34:00,
2015-03-05 03:36:00,10.8,1.7,30.33,NE,45,2.0,-999.0,66,0.00,,,0.00,Wunderground v.1.15,2015-03-05 08:36:00,
2015-03-05 03:39:00,10.8,1.7,30.33,NE,45,2.0,-999.0,66,0.00,,,0.00,Wunderground v.1.15,2015-03-05 08:39:00,
2015-03-05 03:41:00,10.8,1.7,30.33,NE,45,2.0,-999.0,66,0.00,,,0.00,Wunderground v.1.15,2015-03-05 08:41:00,
2015-03-05 03:44:00,10.8,1.7,30.33,NE,45,2.0,-999.0,66,0.00,,,0.00,Wunderground v.1.15,2015-03-05 08:44:00,
2015-03-05 03:46:00,10.4,1.6,30.33,NE,45,2.0,-999.0,67,0.00,,,0.00,Wunderground v.1.15,2015-03-05 08:46:00,
2015-03-05 03:49:00,10.4,1.6,30.33,NE,45,2.0,-999.0,67,0.00,,,0.00,Wunderground v.1.15,2015-03-05 08:49:00,
2015-03-05 03:51:00,10.4,1.6,30.33,NE,45,2.0,-999.0,67,0.00,,,0.00,Wunderground v.1.15,2015-03-05 08:51:00,
2015-03-05 03:54:00,10.4,1.6,30.33,NE,45,2.0,-999.0,67,0.00,,,0.00,Wunderground v.1.15,2015-03-05 08:54:00,
2015-03-05 03:56:00,10.1,1.6,30.33,NE,45,2.0,-999.0,68,0.00,,,0.00,Wunderground v.1.15,2015-03-05 08:56:00,
2015-03-05 03:59:00,10.1,1.6,30.33,NE,45,2.0,-999.0,68,0.00,,,0.00,Wunderground v.1.15,2015-03-05 08:59:00,
2015-03-05 04:01:00,10.1,1.6,30.33,NE,45,2.0,-999.0,68,0.00,,,0.00,Wunderground v.1.15,2015-03-05 09:01:00,
2015-03-05 04:04:00,10.1,1.6,30.33,NE,45,2.0,-999.0,68,0.00,,,0.00,Wunderground v.1.15,2015-03-05 09:04:00,
2015-03-05 04:06:00,9.8,1.3,30.33,NE,45,2.0,-999.0,68,0.00,,,0.00,Wunderground v.1.15,2015-03-05 09:06:00,
2015-03-05 04:09:00,9.8,1.3,30.33,NE,45,2.0,-999.0,68,0.00,,,0.00,Wunderground v.1.15,2015-03-05 09:09:00,
2015-03-05 04:11:00,9.8,1.3,30.33,NE,45,2.0,-999.0,68,0.00,,,0.00,Wunderground v.1.15,2015-03-05 09:11:00,
2015-03-05 04:14:00,9.8,1.3,30.33,NE,45,2.0,-999.0,68,0.00,,,0.00,Wunderground v.1.15,2015-03-05 09:14:00,
2015-03-05 04:16:00,9.6,1.5,30.33,NE,45,3.0,-999.0,69,0.00,,,0.00,Wunderground v.1.15,2015-03-05 09:16:00,
2015-03-05 04:19:00,9.6,1.5,30.33,NE,45,3.0,-999.0,69,0.00,,,0.00,Wunderground v.1.15,2015-03-05 09:19:00,
2015-03-05 04:21:00,9.6,1.5,30.33,NE,45,3.0,-999.0,69,0.00,,,0.00,Wunderground v.1.15,2015-03-05 09:21:00,
2015-03-05 04:24:00,9.6,1.5,30.33,NE,45,3.0,-999.0,69,0.00,,,0.00,Wunderground v.1.15,2015-03-05 09:24:00,
2015-03-05 04:26:00,9.3,1.5,30.34,NE,45,2.0,-999.0,70,0.00,,,0.00,Wunderground v.1.15,2015-03-05 09:26:00,
2015-03-05 04:29:00,9.3,1.5,30.34,NE,45,2.0,-999.0,70,0.00,,,0.00,Wunderground v.1.15,2015-03-05 09:29:00,
2015-03-05 04:31:00,9.3,1.5,30.34,NE,45,2.0,-999.0,70,0.00,,,0.00,Wunderground v.1.15,2015-03-05 09:31:00,
2015-03-05 04:34:00,9.3,1.5,30.34,NE,45,2.0,-999.0,70,0.00,,,0.00,Wunderground v.1.15,2015-03-05 09:34:00,
2015-03-05 04:36:00,9.0,1.2,30.35,NE,45,1.0,-999.0,70,0.00,,,0.00,Wunderground v.1.15,2015-03-05 09:36:00,
2015-03-05 04:39:00,9.0,1.2,30.35,NE,45,1.0,-999.0,70,0.00,,,0.00,Wunderground v.1.15,2015-03-05 09:39:00,
2015-03-05 04:41:00,9.0,1.2,30.35,NE,45,1.0,-999.0,70,0.00,,,0.00,Wunderground v.1.15,2015-03-05 09:41:00,
2015-03-05 04:44:00,9.0,1.2,30.35,NE,45,1.0,-999.0,70,0.00,,,0.00,Wunderground v.1.15,2015-03-05 09:44:00,
2015-03-05 04:46:00,8.9,1.4,30.35,NE,45,2.0,-999.0,71,0.00,,,0.00,Wunderground v.1.15,2015-03-05 09:46:00,
2015-03-05 04:49:00,8.9,1.4,30.35,NE,45,2.0,-999.0,71,0.00,,,0.00,Wunderground v.1.15,2015-03-05 09:49:00,
2015-03-05 04:54:00,8.9,1.4,30.35,NE,45,2.0,-999.0,71,0.00,,,0.00,Wunderground v.1.15,2015-03-05 09:54:00,
2015-03-05 04:56:00,8.8,1.6,30.35,NE,45,1.0,-999.0,72,0.00,,,0.00,Wunderground v.1.15,2015-03-05 09:56:00,
2015-03-05 04:59:00,8.8,1.6,30.35,NE,45,1.0,-999.0,72,0.00,,,0.00,Wunderground v.1.15,2015-03-05 09:59:00,
2015-03-05 05:01:00,8.8,1.6,30.35,NE,45,1.0,-999.0,72,0.00,,,0.00,Wunderground v.1.15,2015-03-05 10:01:00,
2015-03-05 05:04:00,8.8,1.6,30.35,NE,45,1.0,-999.0,72,0.00,,,0.00,Wunderground v.1.15,2015-03-05 10:04:00,
2015-03-05 05:06:00,8.6,1.4,30.36,NE,45,2.0,-999.0,72,0.00,,,0.00,Wunderground v.1.15,2015-03-05 10:06:00,
2015-03-05 05:09:00,8.6,1.4,30.36,NE,45,2.0,-999.0,72,0.00,,,0.00,Wunderground v.1.15,2015-03-05 10:09:00,
2015-03-05 05:11:00,8.6,1.4,30.36,NE,45,2.0,-999.0,72,0.00,,,0.00,Wunderground v.1.15,2015-03-05 10:11:00,
2015-03-05 05:14:00,8.6,1.4,30.36,NE,45,2.0,-999.0,72,0.00,,,0.00,Wunderground v.1.15,2015-03-05 10:14:00,
2015-03-05 05:16:00,8.3,1.1,30.34,NE,45,2.0,-999.0,72,0.00,,,0.00,Wunderground v.1.15,2015-03-05 10:16:00,
2015-03-05 05:19:00,8.3,1.1,30.34,NE,45,2.0,-999.0,72,0.00,,,0.00,Wunderground v.1.15,2015-03-05 10:19:00,
2015-03-05 05:21:00,8.3,1.1,30.34,NE,45,2.0,-999.0,72,0.00,,,0.00,Wunderground v.1.15,2015-03-05 10:21:00,
2015-03-05 05:24:00,8.3,1.1,30.34,NE,45,2.0,-999.0,72,0.00,,,0.00,Wunderground v.1.15,2015-03-05 10:24:00,
2015-03-05 05:26:00,8.0,1.1,30.36,NE,45,1.0,-999.0,73,0.00,,,0.00,Wunderground v.1.15,2015-03-05 10:26:00,
2015-03-05 05:29:00,8.0,1.1,30.36,NE,45,1.0,-999.0,73,0.00,,,0.00,Wunderground v.1.15,2015-03-05 10:29:00,
2015-03-05 05:31:00,8.0,1.1,30.36,NE,45,1.0,-999.0,73,0.00,,,0.00,Wunderground v.1.15,2015-03-05 10:31:00,
2015-03-05 05:34:00,8.0,1.1,30.36,NE,45,1.0,-999.0,73,0.00,,,0.00,Wunderground v.1.15,2015-03-05 10:34:00,
2015-03-05 05:36:00,7.7,0.8,30.36,NE,45,2.0,-999.0,73,0.00,,,0.00,Wunderground v.1.15,2015-03-05 10:36:00,
2015-03-05 05:39:00,7.7,0.8,30.36,NE,45,2.0,-999.0,73,0.00,,,0.00,Wunderground v.1.15,2015-03-05 10:39:00,
2015-03-05 05:41:00,7.7,0.8,30.36,NE,45,2.0,-999.0,73,0.00,,,0.00,Wunderground v.1.15,2015-03-05 10:41:00,
2015-03-05 05:44:00,7.7,0.8,30.36,NE,45,2.0,-999.0,73,0.00,,,0.00,Wunderground v.1.15,2015-03-05 10:44:00,
2015-03-05 05:46:00,7.6,1.0,30.36,NE,45,2.0,-999.0,74,0.00,,,0.00,Wunderground v.1.15,2015-03-05 10:46:00,
2015-03-05 05:49:00,7.6,1.0,30.36,NE,45,2.0,-999.0,74,0.00,,,0.00,Wunderground v.1.15,2015-03-05 10:49:00,
2015-03-05 05:51:00,7.6,1.0,30.36,NE,45,2.0,-999.0,74,0.00,,,0.00,Wunderground v.1.15,2015-03-05 10:51:00,
2015-03-05 05:54:00,7.6,1.0,30.36,NE,45,2.0,-999.0,74,0.00,,,0.00,Wunderground v.1.15,2015-03-05 10:54:00,
2015-03-05 05:56:00,7.4,0.8,30.37,NE,45,3.0,-999.0,74,0.00,,,0.00,Wunderground v.1.15,2015-03-05 10:56:00,
2015-03-05 05:59:00,7.4,0.8,30.37,NE,45,3.0,-999.0,74,0.00,,,0.00,Wunderground v.1.15,2015-03-05 10:59:00,
2015-03-05 06:01:00,7.4,0.8,30.37,NE,45,3.0,-999.0,74,0.00,,,0.00,Wunderground v.1.15,2015-03-05 11:01:00,
2015-03-05 06:04:00,7.4,0.8,30.37,NE,45,3.0,-999.0,74,0.00,,,0.00,Wunderground v.1.15,2015-03-05 11:04:00,
2015-03-05 06:06:00,7.2,0.9,30.37,NE,45,2.0,-999.0,75,0.00,,,0.00,Wunderground v.1.15,2015-03-05 11:06:00,
2015-03-05 06:09:00,7.2,0.9,30.37,NE,45,2.0,-999.0,75,0.00,,,0.00,Wunderground v.1.15,2015-03-05 11:09:00,
2015-03-05 06:11:00,7.2,0.9,30.37,NE,45,2.0,-999.0,75,0.00,,,0.00,Wunderground v.1.15,2015-03-05 11:11:00,
2015-03-05 06:14:00,7.2,0.9,30.37,NE,45,2.0,-999.0,75,0.00,,,0.00,Wunderground v.1.15,2015-03-05 11:14:00,
2015-03-05 06:16:00,6.9,0.6,30.37,NE,45,3.0,-999.0,75,0.00,,,0.00,Wunderground v.1.15,2015-03-05 11:16:00,
2015-03-05 06:21:00,6.9,0.6,30.37,NE,45,3.0,-999.0,75,0.00,,,0.00,Wunderground v.1.15,2015-03-05 11:21:00,
2015-03-05 06:26:00,6.6,0.6,30.37,NE,45,2.0,-999.0,76,0.00,,,0.00,Wunderground v.1.15,2015-03-05 11:26:00,
2015-03-05 06:31:00,6.6,0.6,30.37,NE,45,2.0,-999.0,76,0.00,,,0.00,Wunderground v.1.15,2015-03-05 11:31:00,
2015-03-05 06:36:00,6.4,0.4,30.38,NE,45,2.0,-999.0,76,0.00,,,0.00,Wunderground v.1.15,2015-03-05 11:36:00,
2015-03-05 06:41:00,6.4,0.4,30.38,NE,45,2.0,-999.0,76,0.00,,,0.00,Wunderground v.1.15,2015-03-05 11:41:00,
2015-03-05 06:46:00,6.1,0.4,30.36,NE,45,2.0,-999.0,77,0.00,,,0.00,Wunderground v.1.15,2015-03-05 11:46:00,
2015-03-05 06:51:00,6.1,0.4,30.36,NE,45,2.0,-999.0,77,0.00,,,0.00,Wunderground v.1.15,2015-03-05 11:51:00,
2015-03-05 06:56:00,5.9,0.5,30.38,NE,45,2.0,-999.0,78,0.00,,,0.00,Wunderground v.1.15,2015-03-05 11:56:00,
2015-03-05 07:01:00,5.9,0.5,30.38,NE,45,2.0,-999.0,78,0.00,,,0.00,Wunderground v.1.15,2015-03-05 12:01:00,
2015-03-05 07:06:00,5.8,0.4,30.40,NE,45,1.0,-999.0,78,0.00,,,0.00,Wunderground v.1.15,2015-03-05 12:06:00,
2015-03-05 07:11:00,5.8,0.4,30.40,NE,45,1.0,-999.0,78,0.00,,,0.00,Wunderground v.1.15,2015-03-05 12:11:00,
2015-03-05 07:16:00,5.9,0.8,30.42,NE,45,2.0,-999.0,79,0.00,,,0.00,Wunderground v.1.15,2015-03-05 12:16:00,
2015-03-05 07:21:00,5.9,0.8,30.42,NE,45,2.0,-999.0,79,0.00,,,0.00,Wunderground v.1.15,2015-03-05 12:21:00,
2015-03-05 07:26:00,6.0,0.9,30.40,NE,45,3.0,-999.0,79,0.00,,,0.00,Wunderground v.1.15,2015-03-05 12:26:00,
2015-03-05 07:31:00,6.0,0.9,30.40,NE,45,3.0,-999.0,79,0.00,,,0.00,Wunderground v.1.15,2015-03-05 12:31:00,
2015-03-05 07:36:00,6.1,1.0,30.40,NE,45,3.0,-999.0,79,0.00,,,0.00,Wunderground v.1.15,2015-03-05 12:36:00,
2015-03-05 07:41:00,6.1,1.0,30.40,NE,45,3.0,-999.0,79,0.00,,,0.00,Wunderground v.1.15,2015-03-05 12:41:00,
2015-03-05 07:46:00,6.4,1.0,30.40,NE,45,4.0,-999.0,78,0.00,,,0.00,Wunderground v.1.15,2015-03-05 12:46:00,
2015-03-05 07:51:00,6.4,1.0,30.40,NE,45,4.0,-999.0,78,0.00,,,0.00,Wunderground v.1.15,2015-03-05 12:51:00,
2015-03-05 07:56:00,6.9,1.5,30.41,NE,45,4.0,-999.0,78,0.00,,,0.00,Wunderground v.1.15,2015-03-05 12:56:00,
2015-03-05 08:01:00,6.9,1.5,30.41,NE,45,4.0,-999.0,78,0.00,,,0.00,Wunderground v.1.15,2015-03-05 13:01:00,
2015-03-05 08:06:00,7.4,1.4,30.42,NE,45,4.0,-999.0,76,0.00,,,0.00,Wunderground v.1.15,2015-03-05 13:06:00,
2015-03-05 08:11:00,7.4,1.4,30.42,NE,45,4.0,-999.0,76,0.00,,,0.00,Wunderground v.1.15,2015-03-05 13:11:00,
2015-03-05 08:16:00,8.1,1.5,30.42,NE,45,4.0,-999.0,74,0.00,,,0.00,Wunderground v.1.15,2015-03-05 13:16:00,
2015-03-05 08:21:00,8.1,1.5,30.42,NE,45,4.0,-999.0,74,0.00,,,0.00,Wunderground v.1.15,2015-03-05 13:21:00,
2015-03-05 08:26:00,9.0,2.1,30.43,NE,45,4.0,-999.0,73,0.00,,,0.00,Wunderground v.1.15,2015-03-05 13:26:00,
2015-03-05 08:31:00,9.0,2.1,30.43,NE,45,4.0,-999.0,73,0.00,,,0.00,Wunderground v.1.15,2015-03-05 13:31:00,
2015-03-05 08:36:00,9.9,2.1,30.43,NE,45,4.0,-999.0,70,0.00,,,0.00,Wunderground v.1.15,2015-03-05 13:36:00,
2015-03-05 08:41:00,9.9,2.1,30.43,NE,45,4.0,-999.0,70,0.00,,,0.00,Wunderground v.1.15,2015-03-05 13:41:00,
2015-03-05 08:46:00,10.0,1.2,30.42,NE,45,3.0,-999.0,67,0.00,,,0.00,Wunderground v.1.15,2015-03-05 13:46:00,
2015-03-05 08:51:00,10.0,1.2,30.42,NE,45,3.0,-999.0,67,0.00,,,0.00,Wunderground v.1.15,2015-03-05 13:51:00,
2015-03-05 08:56:00,10.2,0.8,30.42,ENE,68,3.0,-999.0,65,0.00,,,0.00,Wunderground v.1.15,2015-03-05 13:56:00,
2015-03-05 09:01:00,10.2,0.8,30.42,ENE,68,3.0,-999.0,65,0.00,,,0.00,Wunderground v.1.15,2015-03-05 14:01:00,
2015-03-05 09:06:00,10.7,0.9,30.43,NE,45,4.0,-999.0,64,0.00,,,0.00,Wunderground v.1.15,2015-03-05 14:06:00,
2015-03-05 09:11:00,10.7,0.9,30.43,NE,45,4.0,-999.0,64,0.00,,,0.00,Wunderground v.1.15,2015-03-05 14:11:00,
2015-03-05 09:16:00,10.9,0.8,30.44,NE,45,4.0,-999.0,63,0.00,,,0.00,Wunderground v.1.15,2015-03-05 14:16:00,
2015-03-05 09:21:00,10.9,0.8,30.44,NE,45,4.0,-999.0,63,0.00,,,0.00,Wunderground v.1.15,2015-03-05 14:21:00,
2015-03-05 09:26:00,11.0,0.2,30.45,NE,45,5.0,-999.0,61,0.00,,,0.00,Wunderground v.1.15,2015-03-05 14:26:00,
2015-03-05 09:31:00,11.0,0.2,30.45,NE,45,5.0,-999.0,61,0.00,,,0.00,Wunderground v.1.15,2015-03-05 14:31:00,
2015-03-05 09:36:00,11.7,1.2,30.45,NE,45,3.0,-999.0,62,0.00,,,0.00,Wunderground v.1.15,2015-03-05 14:36:00,
2015-03-05 09:41:00,11.7,1.2,30.45,NE,45,3.0,-999.0,62,0.00,,,0.00,Wunderground v.1.15,2015-03-05 14:41:00,
2015-03-05 09:46:00,12.2,0.9,30.46,NE,45,3.0,-999.0,60,0.00,,,0.00,Wunderground v.1.15,2015-03-05 14:46:00,
2015-03-05 09:51:00,12.2,0.9,30.46,NE,45,3.0,-999.0,60,0.00,,,0.00,Wunderground v.1.15,2015-03-05 14:51:00,
2015-03-05 09:56:00,12.9,1.2,30.46,NE,45,3.0,-999.0,59,0.00,,,0.00,Wunderground v.1.15,2015-03-05 14:56:00,
2015-03-05 10:01:00,12.9,1.2,30.46,NE,45,3.0,-999.0,59,0.00,,,0.00,Wunderground v.1.15,2015-03-05 15:01:00,
2015-03-05 10:06:00,12.9,1.2,30.46,NE,45,3.0,-999.0,59,0.00,,,0.00,Wunderground v.1.15,2015-03-05 15:06:00,
2015-03-05 10:11:00,-999.9,-99.9,-100.00,N/A,-737280,0.0,-999.0,-32768,0.00,,,0.00,Wunderground v.1.15,2015-03-05 15:11:00,
2015-03-05 10:16:00,-999.9,-99.9,-100.00,N/A,-737280,0.0,-999.0,-32768,0.00,,,0.00,Wunderground v.1.15,2015-03-05 15:16:00,
2015-03-05 10:21:00,-999.9,-99.9,-100.00,N/A,-737280,0.0,-999.0,-32768,0.00,,,0.00,Wunderground v.1.15,2015-03-05 15:21:00,
2015-03-05 10:26:00,13.4,1.0,30.44,North,0,3.0,-999.0,57,0.00,,,0.00,Wunderground v.1.15,2015-03-05 15:26:00,
2015-03-05 10:31:00,13.4,1.0,30.44,North,0,3.0,-999.0,57,0.00,,,0.00,Wunderground v.1.15,2015-03-05 15:31:00,
2015-03-05 10:36:00,13.9,1.1,30.43,NNE,23,4.0,-999.0,56,0.00,,,0.00,Wunderground v.1.15,2015-03-05 15:36:00,
2015-03-05 10:39:00,13.3,1.0,30.45,NNW,346,2.0,3.0,58,0.00,,,0.00,weatherlink.com 1.10,2015-03-05 15:39:00,
2015-03-05 10:41:00,13.9,1.1,30.43,NNE,23,4.0,-999.0,56,0.00,,,0.00,Wunderground v.1.15,2015-03-05 15:41:00,
2015-03-05 10:46:00,14.3,1.4,30.44,NNE,23,3.0,-999.0,56,0.00,,,0.00,Wunderground v.1.15,2015-03-05 15:46:00,
2015-03-05 10:51:00,14.3,1.4,30.44,NNE,23,3.0,-999.0,56,0.00,,,0.00,Wunderground v.1.15,2015-03-05 15:51:00,
2015-03-05 10:54:00,13.7,1.0,30.43,NE,43,5.0,9.0,57,0.00,,,0.00,weatherlink.com 1.10,2015-03-05 15:54:00,
2015-03-05 10:56:00,14.8,1.9,30.44,North,0,3.0,-999.0,56,0.00,,,0.00,Wunderground v.1.15,2015-03-05 15:56:00,
2015-03-05 11:01:00,14.8,1.9,30.44,North,0,3.0,-999.0,56,0.00,,,0.00,Wunderground v.1.15,2015-03-05 16:01:00,
2015-03-05 11:06:00,15.0,1.7,30.44,North,0,4.0,-999.0,55,0.00,,,0.00,Wunderground v.1.15,2015-03-05 16:06:00,
2015-03-05 11:09:00,14.3,1.0,30.44,NNW,336,2.0,8.0,56,0.00,,,0.00,weatherlink.com 1.10,2015-03-05 16:09:00,
2015-03-05 11:11:00,15.0,1.7,30.44,North,0,4.0,-999.0,55,0.00,,,0.00,Wunderground v.1.15,2015-03-05 16:11:00,
2015-03-05 11:16:00,15.3,2.0,30.45,NE,45,3.0,-999.0,55,0.00,,,0.00,Wunderground v.1.15,2015-03-05 16:16:00,
2015-03-05 11:21:00,15.3,2.0,30.45,NE,45,3.0,-999.0,55,0.00,,,0.00,Wunderground v.1.15,2015-03-05 16:21:00,
2015-03-05 11:24:00,15.0,1.0,30.44,North,9,3.0,11.0,54,0.00,,,0.00,weatherlink.com 1.10,2015-03-05 16:24:00,
2015-03-05 11:26:00,15.2,2.7,30.45,NW,315,3.0,-999.0,57,0.00,,,0.00,Wunderground v.1.15,2015-03-05 16:26:00,
2015-03-05 11:31:00,15.2,2.7,30.45,NW,315,3.0,-999.0,57,0.00,,,0.00,Wunderground v.1.15,2015-03-05 16:31:00,
2015-03-05 11:36:00,15.4,3.2,30.45,NW,315,3.0,-999.0,58,0.00,,,0.00,Wunderground v.1.15,2015-03-05 16:36:00,
2015-03-05 11:40:00,15.3,2.0,30.45,NW,325,4.0,6.0,55,0.00,,,0.00,weatherlink.com 1.10,2015-03-05 16:40:00,
2015-03-05 11:41:00,15.4,3.2,30.45,NW,315,3.0,-999.0,58,0.00,,,0.00,Wunderground v.1.15,2015-03-05 16:41:00,
2015-03-05 11:46:00,15.4,2.5,30.45,NNW,338,3.0,-999.0,56,0.00,,,0.00,Wunderground v.1.15,2015-03-05 16:46:00,
2015-03-05 11:51:00,15.4,2.5,30.45,NNW,338,3.0,-999.0,56,0.00,,,0.00,Wunderground v.1.15,2015-03-05 16:51:00,
2015-03-05 11:55:00,15.2,2.0,30.45,NW,304,1.0,6.0,57,0.00,,,0.00,weatherlink.com 1.10,2015-03-05 16:55:00,
2015-03-05 11:56:00,16.0,2.3,30.45,NNE,23,3.0,-999.0,54,0.00,,,0.00,Wunderground v.1.15,2015-03-05 16:56:00,
2015-03-05 12:01:00,16.0,2.3,30.45,NNE,23,3.0,-999.0,54,0.00,,,0.00,Wunderground v.1.15,2015-03-05 17:01:00,
2015-03-05 12:06:00,16.1,3.9,30.45,NNW,338,3.0,-999.0,58,0.00,,,0.00,Wunderground v.1.15,2015-03-05 17:06:00,
2015-03-05 12:10:00,15.5,2.0,30.45,NE,36,2.0,9.0,56,0.00,,,0.00,weatherlink.com 1.10,2015-03-05 17:10:00,
2015-03-05 12:11:00,16.1,3.9,30.45,NNW,338,3.0,-999.0,58,0.00,,,0.00,Wunderground v.1.15,2015-03-05 17:11:00,
2015-03-05 12:16:00,16.3,3.3,30.46,NNW,338,3.0,-999.0,56,0.00,,,0.00,Wunderground v.1.15,2015-03-05 17:16:00,
2015-03-05 12:21:00,16.3,3.3,30.46,NNW,338,3.0,-999.0,56,0.00,,,0.00,Wunderground v.1.15,2015-03-05 17:21:00,
2015-03-05 12:25:00,15.6,2.0,30.45,NNW,331,3.0,6.0,55,0.00,,,0.00,weatherlink.com 1.10,2015-03-05 17:25:00,
2015-03-05 12:26:00,16.8,3.0,30.46,NE,45,4.0,-999.0,54,0.00,,,0.00,Wunderground v.1.15,2015-03-05 17:26:00,
2015-03-05 12:31:00,16.8,3.0,30.46,NE,45,4.0,-999.0,54,0.00,,,0.00,Wunderground v.1.15,2015-03-05 17:31:00,
2015-03-05 12:36:00,17.2,4.2,30.45,NNW,338,3.0,-999.0,56,0.00,,,0.00,Wunderground v.1.15,2015-03-05 17:36:00,
2015-03-05 12:40:00,16.2,3.0,30.46,NE,40,6.0,9.0,56,0.00,,,0.00,weatherlink.com 1.10,2015-03-05 17:40:00,
2015-03-05 12:55:00,16.6,2.0,30.45,NNW,341,1.0,9.0,53,0.00,,,0.00,weatherlink.com 1.10,2015-03-05 17:55:00,
2015-03-05 13:09:00,15.9,2.0,30.45,North,360,5.0,12.0,54,0.00,,,0.00,weatherlink.com 1.10,2015-03-05 18:09:00,
2015-03-05 13:24:00,16.5,2.0,30.45,NNW,331,5.0,11.0,53,0.00,,,0.00,weatherlink.com 1.10,2015-03-05 18:24:00,
2015-03-05 13:39:00,17.3,3.0,30.45,NNW,336,5.0,9.0,53,0.00,,,0.00,weatherlink.com 1.10,2015-03-05 18:39:00,
2015-03-05 13:54:00,17.8,4.0,30.44,NW,311,3.0,10.0,56,0.00,,,0.00,weatherlink.com 1.10,2015-03-05 18:54:00,
2015-03-05 14:09:00,18.1,3.0,30.44,NNE,25,6.0,9.0,52,0.00,,,0.00,weatherlink.com 1.10,2015-03-05 19:09:00,
2015-03-05 14:25:00,18.2,4.0,30.45,North,355,4.0,9.0,53,0.00,,,0.00,weatherlink.com 1.10,2015-03-05 19:25:00,
2015-03-05 14:40:00,18.1,3.0,30.45,NW,313,6.0,12.0,51,0.00,,,0.00,weatherlink.com 1.10,2015-03-05 19:40:00,
2015-03-05 14:54:00,19.6,3.0,30.45,North,355,3.0,11.0,49,0.00,,,0.00,weatherlink.com 1.10,2015-03-05 19:54:00,
2015-03-05 15:24:00,19.3,5.0,30.45,NW,306,5.0,10.0,53,0.00,,,0.00,weatherlink.com 1.10,2015-03-05 20:24:00,
2015-03-05 15:39:00,19.5,4.0,30.46,NNW,341,4.0,10.0,50,0.00,,,0.00,weatherlink.com 1.10,2015-03-05 20:39:00,
2015-03-05 15:55:00,19.5,4.0,30.47,NW,316,5.0,9.0,50,0.00,,,0.00,weatherlink.com 1.10,2015-03-05 20:55:00,
2015-03-05 16:10:00,19.8,5.0,30.47,NW,318,8.0,10.0,52,0.00,,,0.00,weatherlink.com 1.10,2015-03-05 21:10:00,
2015-03-05 16:25:00,21.3,5.0,30.47,North,351,3.0,8.0,50,0.00,,,0.00,weatherlink.com 1.10,2015-03-05 21:25:00,
2015-03-05 16:40:00,20.7,4.0,30.47,NW,322,4.0,9.0,48,0.00,,,0.00,weatherlink.com 1.10,2015-03-05 21:40:00,
2015-03-05 16:55:00,20.3,4.0,30.48,NW,307,4.0,10.0,49,0.00,,,0.00,weatherlink.com 1.10,2015-03-05 21:55:00,
2015-03-05 17:10:00,19.7,3.0,30.48,NW,320,3.0,10.0,49,0.00,,,0.00,weatherlink.com 1.10,2015-03-05 22:10:00,
2015-03-05 17:25:00,19.6,3.0,30.49,NW,313,5.0,9.0,49,0.00,,,0.00,weatherlink.com 1.10,2015-03-05 22:25:00,
2015-03-05 17:40:00,18.6,3.0,30.50,NNW,333,3.0,9.0,50,0.00,,,0.00,weatherlink.com 1.10,2015-03-05 22:40:00,
2015-03-05 17:55:00,18.6,3.0,30.51,NW,317,2.0,6.0,51,0.00,,,0.00,weatherlink.com 1.10,2015-03-05 22:55:00,
2015-03-05 18:10:00,17.8,3.0,30.51,NW,317,2.0,6.0,52,0.00,,,0.00,weatherlink.com 1.10,2015-03-05 23:10:00,
2015-03-05 18:25:00,16.9,3.0,30.52,NW,317,3.0,3.0,54,0.00,,,0.00,weatherlink.com 1.10,2015-03-05 23:25:00,
2015-03-05 18:40:00,16.0,2.0,30.52,NW,317,0.0,1.0,55,0.00,,,0.00,weatherlink.com 1.10,2015-03-05 23:40:00,
2015-03-05 18:55:00,15.0,2.0,30.53,NW,317,0.0,0.0,57,0.00,,,0.00,weatherlink.com 1.10,2015-03-05 23:55:00,
2015-03-05 19:10:00,14.4,2.0,30.53,NW,317,0.0,1.0,58,0.00,,,0.00,weatherlink.com 1.10,2015-03-06 00:10:00,
2015-03-05 19:25:00,13.9,2.0,30.53,NW,317,0.0,0.0,59,0.00,,,0.00,weatherlink.com 1.10,2015-03-06 00:25:00,
2015-03-05 19:40:00,13.4,2.0,30.53,NW,317,0.0,0.0,60,0.00,,,0.00,weatherlink.com 1.10,2015-03-06 00:40:00,
2015-03-05 19:55:00,12.9,2.0,30.54,NW,317,0.0,0.0,62,0.00,,,0.00,weatherlink.com 1.10,2015-03-06 00:55:00,